Hourly Weather Bolshie Kibyachi

Today, 1 August, Sunday

Time Temperature Precipitation Wind Pressure Humidity
00:00 +19°C° 0 mm 3 mps 745 mmHg 82%
01:00 +19°C° 0 mm 3 mps 745 mmHg 81%
02:00 +19°C° 0 mm 3 mps 745 mmHg 79%
03:00 +18°C° 0 mm 3 mps 745 mmHg 81%
04:00 +19°C° 0 mm 3 mps 746 mmHg 78%
05:00 +20°C° 0 mm 4 mps 746 mmHg 75%
06:00 +20°C° 0 mm 4 mps 746 mmHg 72%
07:00 +22°C° 0 mm 4 mps 746 mmHg 65%
08:00 +25°C° 0 mm 4 mps 747 mmHg 57%
09:00 +26°C° 0 mm 4 mps 747 mmHg 50%
10:00 +27°C° 0 mm 4 mps 747 mmHg 46%
11:00 +28°C° 0 mm 5 mps 747 mmHg 43%
12:00 +29°C° 0 mm 5 mps 747 mmHg 39%
13:00 +29°C° 0 mm 5 mps 747 mmHg 39%
14:00 +29°C° 0 mm 5 mps 748 mmHg 38%
15:00 +29°C° 0 mm 5 mps 748 mmHg 38%
16:00 +28°C° 0 mm 4 mps 748 mmHg 43%
17:00 +27°C° 0 mm 4 mps 748 mmHg 49%
18:00 +26°C° 0 mm 3 mps 748 mmHg 55%
19:00 +24°C° 0 mm 3 mps 748 mmHg 58%
20:00 +23°C° 0 mm 2 mps 748 mmHg 61%
21:00 +20°C° 0 mm 2 mps 749 mmHg 64%
22:00 +20°C° 0 mm 2 mps 749 mmHg 66%
23:00 +19°C° 0 mm 2 mps 749 mmHg 69%

Tomorrow, 2 August, Monday

Time Temperature Precipitation Wind Pressure Humidity
00:00 +18°C° 0 mm 2 mps 749 mmHg 71%
01:00 +18°C° 0 mm 2 mps 749 mmHg 72%
02:00 +18°C° 0 mm 2 mps 749 mmHg 73%
03:00 +17°C° 0 mm 2 mps 749 mmHg 74%
04:00 +19°C° 0 mm 2 mps 749 mmHg 71%
05:00 +20°C° 0 mm 2 mps 750 mmHg 68%
06:00 +21°C° 0 mm 2 mps 750 mmHg 66%
07:00 +24°C° 0 mm 2 mps 750 mmHg 59%
08:00 +26°C° 0 mm 3 mps 750 mmHg 53%
09:00 +27°C° 0 mm 4 mps 750 mmHg 47%
10:00 +29°C° 0 mm 4 mps 750 mmHg 44%
11:00 +30°C° 0 mm 4 mps 750 mmHg 41%
12:00 +32°C° 0 mm 4 mps 750 mmHg 37%
13:00 +32°C° 0 mm 4 mps 749 mmHg 37%
14:00 +33°C° 0 mm 3 mps 749 mmHg 37%
15:00 +33°C° 0 mm 3 mps 749 mmHg 36%
16:00 +31°C° 0 mm 3 mps 749 mmHg 41%
17:00 +30°C° 0 mm 3 mps 749 mmHg 46%
18:00 +29°C° 0 mm 3 mps 748 mmHg 51%
19:00 +27°C° 0.1 mm 3 mps 748 mmHg 53%
20:00 +26°C° 0.1 mm 2 mps 748 mmHg 55%
21:00 +25°C° 0.1 mm 2 mps 748 mmHg 56%
22:00 +24°C° 0 mm 2 mps 748 mmHg 57%
23:00 +23°C° 0 mm 2 mps 748 mmHg 57%

Day after tomorrow, 3 August, Tuesday

Time Temperature Precipitation Wind Pressure Humidity
00:00 +22°C° 0 mm 3 mps 748 mmHg 58%
01:00 +21°C° 0 mm 3 mps 748 mmHg 58%
02:00 +21°C° 0 mm 3 mps 748 mmHg 58%
03:00 +21°C° 0 mm 2 mps 748 mmHg 58%
04:00 +23°C° 0 mm 2 mps 748 mmHg 57%
05:00 +24°C° 0 mm 2 mps 748 mmHg 56%
06:00 +24°C° 0 mm 2 mps 748 mmHg 56%
07:00 +27°C° 0 mm 3 mps 747 mmHg 49%
08:00 +29°C° 0 mm 4 mps 747 mmHg 43%
09:00 +33°C° 0 mm 5 mps 747 mmHg 36%
10:00 +34°C° 0 mm 5 mps 747 mmHg 34%
11:00 +35°C° 0 mm 5 mps 747 mmHg 32%
12:00 +36°C° 0 mm 5 mps 746 mmHg 29%
13:00 +36°C° 0 mm 5 mps 746 mmHg 28%
14:00 +37°C° 0 mm 5 mps 746 mmHg 27%
15:00 +37°C° 0 mm 5 mps 745 mmHg 25%
16:00 +35°C° 0 mm 4 mps 745 mmHg 33%
17:00 +33°C° 0 mm 4 mps 745 mmHg 40%
18:00 +30°C° 0 mm 4 mps 745 mmHg 48%
19:00 +28°C° 0.2 mm 4 mps 746 mmHg 56%
20:00 +26°C° 0.2 mm 4 mps 746 mmHg 64%
21:00 +22°C° 0.2 mm 4 mps 747 mmHg 72%
22:00 +22°C° 0.2 mm 4 mps 746 mmHg 73%
23:00 +21°C° 0.2 mm 3 mps 746 mmHg 74%

4 August, Wednesday

Time Temperature Precipitation Wind Pressure Humidity
00:00 +20°C° 0.2 mm 2 mps 745 mmHg 75%
01:00 +20°C° 0 mm 2 mps 746 mmHg 77%
02:00 +20°C° 0 mm 2 mps 746 mmHg 79%
03:00 +20°C° 0 mm 1 mps 746 mmHg 82%
04:00 +21°C° 0 mm 1 mps 746 mmHg 80%
05:00 +22°C° 0 mm 1 mps 746 mmHg 78%
06:00 +23°C° 0 mm 1 mps 746 mmHg 76%
07:00 +24°C° 0 mm 1 mps 746 mmHg 72%
08:00 +25°C° 0 mm 2 mps 746 mmHg 68%
09:00 +26°C° 0 mm 2 mps 746 mmHg 64%
10:00 +27°C° 0 mm 3 mps 746 mmHg 60%
11:00 +28°C° 0 mm 3 mps 747 mmHg 56%
12:00 +29°C° 0 mm 4 mps 747 mmHg 52%
13:00 +29°C° 0 mm 4 mps 747 mmHg 51%
14:00 +29°C° 0 mm 4 mps 747 mmHg 50%
15:00 +29°C° 0 mm 4 mps 747 mmHg 49%
16:00 +28°C° 0 mm 4 mps 747 mmHg 54%
17:00 +27°C° 0 mm 4 mps 747 mmHg 60%
18:00 +26°C° 0 mm 4 mps 747 mmHg 65%
19:00 +23°C° 0 mm 4 mps 747 mmHg 72%
20:00 +21°C° 0 mm 3 mps 748 mmHg 78%
21:00 +20°C° 0 mm 3 mps 748 mmHg 85%
22:00 +19°C° 0 mm 3 mps 748 mmHg 87%
23:00 +18°C° 0 mm 3 mps 748 mmHg 88%

5 August, Thursday

Time Temperature Precipitation Wind Pressure Humidity
00:00 +18°C° 0 mm 2 mps 748 mmHg 90%
01:00 +17°C° 0 mm 3 mps 748 mmHg 91%
02:00 +17°C° 0 mm 3 mps 749 mmHg 91%
03:00 +16°C° 0 mm 3 mps 749 mmHg 92%
04:00 +17°C° 0 mm 3 mps 749 mmHg 87%
05:00 +18°C° 0 mm 3 mps 749 mmHg 82%
06:00 +19°C° 0 mm 3 mps 749 mmHg 77%
07:00 +21°C° 0 mm 4 mps 750 mmHg 68%
08:00 +22°C° 0 mm 4 mps 750 mmHg 59%
09:00 +25°C° 0 mm 5 mps 750 mmHg 50%
10:00 +26°C° 0 mm 5 mps 750 mmHg 46%
11:00 +26°C° 0 mm 5 mps 750 mmHg 42%
12:00 +27°C° 0 mm 5 mps 750 mmHg 39%
13:00 +27°C° 0 mm 5 mps 750 mmHg 39%
14:00 +26°C° 0 mm 5 mps 750 mmHg 39%
15:00 +26°C° 0 mm 5 mps 750 mmHg 39%
16:00 +25°C° 0 mm 5 mps 750 mmHg 42%
17:00 +25°C° 0 mm 5 mps 750 mmHg 44%
18:00 +23°C° 0 mm 5 mps 750 mmHg 46%
19:00 +21°C° 0 mm 5 mps 750 mmHg 53%
20:00 +19°C° 0 mm 4 mps 750 mmHg 59%
21:00 +17°C° 0 mm 4 mps 750 mmHg 65%
22:00 +17°C° 0 mm 4 mps 751 mmHg 63%
23:00 +15°C° 0 mm 4 mps 751 mmHg 61%

6 August, Friday

Time Temperature Precipitation Wind Pressure Humidity
00:00 +15°C° 0 mm 5 mps 751 mmHg 59%
01:00 +14°C° 0 mm 4 mps 751 mmHg 61%
02:00 +13°C° 0 mm 4 mps 751 mmHg 64%
03:00 +12°C° 0 mm 4 mps 751 mmHg 66%
04:00 +13°C° 0 mm 4 mps 751 mmHg 65%
05:00 +13°C° 0 mm 5 mps 751 mmHg 65%
06:00 +14°C° 0 mm 5 mps 752 mmHg 65%
07:00 +15°C° 0 mm 6 mps 752 mmHg 59%
08:00 +17°C° 0 mm 6 mps 752 mmHg 52%
09:00 +20°C° 0 mm 6 mps 752 mmHg 46%
10:00 +21°C° 0 mm 6 mps 752 mmHg 43%
11:00 +21°C° 0 mm 7 mps 752 mmHg 40%
12:00 +22°C° 0 mm 7 mps 752 mmHg 37%
13:00 +22°C° 0 mm 7 mps 752 mmHg 36%
14:00 +22°C° 0 mm 7 mps 752 mmHg 35%
15:00 +22°C° 0 mm 7 mps 752 mmHg 34%
16:00 +21°C° 0 mm 6 mps 753 mmHg 37%
17:00 +21°C° 0 mm 6 mps 753 mmHg 40%
18:00 +20°C° 0 mm 5 mps 753 mmHg 43%
19:00 +17°C° 0 mm 5 mps 753 mmHg 50%
20:00 +15°C° 0 mm 4 mps 753 mmHg 56%
21:00 +13°C° 0 mm 4 mps 754 mmHg 62%
22:00 +12°C° 0 mm 4 mps 754 mmHg 65%
23:00 +11°C° 0 mm 4 mps 754 mmHg 67%
Show more

We Need Your Consent

Meteoprog and our Service Providers may store and access personal data such as cookies, device identifiers or other similar technologies on your device and process such data to personalise content and ads, as well as provide social media features and to analyse the traffic.

  • Store and/or access information on your device

    Cookies, device identifiers or other information can be stored or accessed on your device for the purposes indicated above.

  • Personalised ads and content, ad and content measurement, audience insights, and products development

    Ads and content can be personalised based on a profile. More data can be added to better personalise ads and content. Ad and content performance can be measured. Insights about the audience who saw the ads and content can be derived. Such data can be used to develop or improve user’s experience, systems and software.

By clicking ‘I Agree’ you will allow the use of indicated cookies, device identifiers, web beacons or other similar technologies. Your settings can be changed in the browser on your device.

For certain purposes, legitimate interests may be relied on, rather than consent. You can read more about this in our Privacy and Cookie Policy.